COSMOS 2251 DEB

Satellite information

Favourite Embed

Satellite Type and Status

DEBRISDECAYED

Key statistics

Satellite COSMOS 2251 DEB at a glance.

Uptime

11675

Days in orbit

Revolutions

≈ 16.1

Per day

Orbit

LEO

Low Earth Orbit

Inclination

74.0

Latest

Satellite identification and parameters

Extended collection of information and parameters for COSMOS 2251 DEB.

Object identification

Identified? True

Debris? True

Object name: COSMOS 2251 DEB

International designator: 1993-036LV

Object number (NORAD): 34275

Object ID (CCSDS): 34275

Country: COMMONWEALTH OF INDEPENDENT STATES (CIS)

Current information (Y/N): Y

RCS size: SMALL

Orbital parameters

Decay date: June 3, 2025

Period: 89.519 minutes

Inclination: 73.9674 deg

SMA: 6628.821 km

Apoapsis: 264.248 km

Periapsis: 237.124 km

RAAN: 37.3992 deg

Eccentricy: 0.0020459

Argument of periapsis: 211.4064 deg

Mean anomaly: 148.596 deg

Mean motion: 16.08601015 rev/day

Mean motion (dot): 0.06738503 rev/day2

B* drag term: 0.01538 1/REarth

Two-line elements (TLE)

Creation date: May 29, 2025, 7:37 p.m.

Reference frame: TEME

Reference center: EARTH

Epoch: May 29, 2025, 2:56 a.m. UTC

TLE line 0: 0 COSMOS 2251 DEB

TLE line 1: 1 34275U 93036LV 25149.12277729 .06738503 28637+0 15380-1 0 9995

TLE line 2: 2 34275 73.9674 37.3992 0020459 211.4064 148.5960 16.08601015859665

Live tracking on map

Satellite COSMOS 2251 DEB has decayed and is no longer in orbit. No tracking available.

In-orbit conjunctions

Satellite COSMOS 2251 DEB has decayed and is no longer in orbit. No conjunctions available.

Associated space launch

Military communications satellite. Destroyed in a collision with Iridium 33.

COSMOS 2251 DEB was lifted into orbit during the mission ‘Kosmos-3M | Strela-2M 51’, on board a Kosmos-3M space rocket.

The launch took place on June 16, 1993, 4:17 a.m. from 132/1 (132L).

For more information about the launch, click the button.

Launch to space Kosmos-3M | Strela-2M 51
Kosmos-3M | Strela-2M 51

Agency: N/A

Status: Launch Successful

Launch date: June 16, 1993, 4:17 a.m. UTC

Rocket: Kosmos-3M

Launch pad: 132/1 (132L)

Location: Plesetsk Cosmodrome, Russian Federation

...

Latest news about this satellite

There are no fresh news available about this satellite. Check back as we update our databases every day.


Newsletter sign-up

Weekly statistics, charts and insights to help you stay on top of the space industry.